Regional Weather Roundup
Issued by NWS

Home | Current Version | Previous Version | Text Only | Print | Product List | Glossary Off
Versions: 1 2 3 4 5 6 7 8 9 10 11 12 13 14 15 16 17 18 19 20 21 22 23 24 25 26 27 28 29 30 31 32 33 34 35 36 37 38 39 40 41 42 43 44 45 46 47 48 49 50

000
ASUS43 KDTX 171510
RWRMI
MICHIGAN HOURLY REGIONAL WEATHER ROUNDUP
NATIONAL WEATHER SERVICE DETROIT/PONTIAC MI
1100 AM EDT THU APR 17 2014

NOTE: "FAIR" INDICATES FEW OR NO CLOUDS BELOW 12,000 FEET WITH NO
SIGNIFICANT WEATHER AND/OR OBSTRUCTION TO VISIBILITY.

MIZ047>049-052>055-059>063-066>070-074>076-081>083-171600-
SOUTHEAST LOWER MICHIGAN

CITY           SKY/WX    TMP DP  RH WIND       PRES   REMARKS
ADRIAN         SUNNY     47  27  45 SW8       30.32S
ALMA           MOSUNNY   43  28  54 SE8       30.28F
ANN ARBOR      SUNNY     49  26  41 S14       30.32F
BAD AXE        MOSUNNY   41  26  56 SE14G21   30.35F
DETROIT CITY   SUNNY     50  27  40 S10       30.35S
DETROIT        PTSUNNY   49  27  42 SE9       30.34F
FLINT          SUNNY     49  27  42 S15       30.32F
GROSSE ILE     SUNNY     46  30  53 SE10      30.34R
HILLSDALE      SUNNY     47  26  43 S9        30.28S
HOWELL         MOSUNNY   47  26  44 S13       30.30S

CITY           SKY/WX    TMP DP  RH WIND       PRES   REMARKS
JACKSON        MOSUNNY   47  25  42 S12       30.29S
LAMBERTVILLE   SUNNY     50  30  46 S7        30.32F
LANSING        MOSUNNY   48  26  42 S14       30.28F
LAPEER         NOT AVBL
MASON          MOSUNNY   47  29  49 S14       30.28F
MONROE         SUNNY     46  27  46 SE7       30.32S
MT. CLEMENS    CLOUDY    47  30  51 SE12      30.35S
PONTIAC        PTSUNNY   46  25  43 SE10      30.32S
PORT HOPE        N/A     39  27  62 SE14G22   30.35F
PORT HURON     SUNNY     46  28  49 S10G18    30.37S
TRI CITIES     SUNNY     45  27  49 SE12      30.31F
YPSILANTI      SUNNY     52  27  38 SE13      30.33S
$$
MIZ043>046-050>051-056>058-064>065-071>073-077>080-171600-
SOUTHWEST LOWER MICHIGAN

CITY           SKY/WX    TMP DP  RH WIND       PRES   REMARKS
BATTLE CREEK   MOSUNNY   50  26  39 S15       30.25F
BENTON HARBOR  PTSUNNY   52  28  39 S16       30.20S
BIG RAPIDS     PTSUNNY   44  27  51 SE15G24   30.21F
COLDWATER      SUNNY     49  27  41 SE10      30.26F
HOLLAND        MOSUNNY   51  29  42 SE16G22   30.20F
GRAND RAPIDS   PTSUNNY   50  27  40 S13       30.23F
KALAMAZOO      MOSUNNY   51  26  37 S15G21    30.24S
MARSHALL       MOSUNNY   49  26  40 SE12      30.26S
MUSKEGON       PTSUNNY   49  25  39 SE16G28   30.18F
$$
MIZ016>042-171600-
NORTHERN LOWER MICHIGAN

CITY           SKY/WX    TMP DP  RH WIND       PRES   REMARKS
ALPENA         PTSUNNY   40  27  59 SE15G23   30.35F
BEAVER ISLAND  CLOUDY    38  26  60 E18       30.24S
BELLAIRE       CLOUDY    43  21  41 SE12G20   30.23F
CADILLAC       CLOUDY    39  25  57 SE14G20   30.20F
CHARLEVOIX     CLOUDY    43  22  42 SE12G25   30.26S
FRANKFORT      CLOUDY    40  24  52 SE9G17    30.17F
GAYLORD        PTSUNNY   39  21  48 SE14G23   30.25F
GRAYLING       PTSUNNY   41  21  43 SE16G23   30.26S
HARBOR SPRINGS PTSUNNY   44  24  47 E9        30.25F
HOUGHTON LAKE  MOSUNNY   41  22  46 SE13G21   30.26F
MANISTEE       CLOUDY    39  21  48 SE12      30.17F
OSCODA         MOSUNNY   40  28  62 SE12G18   30.35F
PELLSTON       PTSUNNY   43  23  45 E17G25    30.27F
TRAVERSE CITY  CLOUDY    41  22  46 SE14G21   30.21S
$$
MIZ007>008-015-171600-
EASTERN UPPER MICHIGAN

CITY           SKY/WX    TMP DP  RH WIND       PRES   REMARKS
KINROSS        MOSUNNY   34  27  75 E30G38    30.31F
MACKINAC ISLAN MOSUNNY   33  29  83 E18G29    30.29F
NEWBERRY       PTSUNNY   33  28  82 E15G24    30.25F
S. S. MARIE    PTSUNNY   34  24  67 SE18G30   30.34F
$$
MIZ004>006-011>014-085-171600-
CENTRAL UPPER MICHIGAN

CITY           SKY/WX    TMP DP  RH WIND       PRES   REMARKS
MANISTIQUE     CLOUDY    34  30  85 E14G25    30.23S
ESCANABA       CLOUDY    32  28  86 E16       30.18F VSB 1/4
MENOMINEE      CLOUDY    34  28  80 SE9       30.14F
SAWYER-GWINN   SNOW      30  28  93 SE13G18   30.17S VSB 1/4
$$
MIZ001>003-009>011-084-171600-
WESTERN UPPER MICHIGAN

CITY           SKY/WX    TMP DP  RH WIND       PRES   REMARKS
IRON MOUNTAIN  SNOW      32  30  92 SE8       30.12S VSB 1/2
HOUGHTON       HVY SNOW  30  27  88 E15       30.17S VSB 1/4
COPPER HARBOR    N/A     32  29  88 S10G17    30.22S
IRONWOOD       CLOUDY    32  27  80 CALM      30.06S
$$

ABBREVIATIONS USED IN REMARKS
   TC - TEMPERATURE IN CELSIUS
  WCI - WIND CHILL INDEX
   HX - HEAT INDEX
  VSB - VISIBILITY




USA.gov is the U.S. government's official web portal to all federal, state and local government web resources and services.